This is the latest recevied weather packets stored in our database for station/object K1RFS. If no packets are shown the sender has not sent any weather packets the latest 10 day(s).
| Time | Temp. | Humidity | Pressure | Rain* | Wind** | Luminosity | Snow |
|---|---|---|---|---|---|---|---|
| 1777864193 | 17.78° C | 25% | 995.7 hPa | 0 mm | - | 0 W/m² | - |
| 1777863890 | 17.78° C | 25% | 996 hPa | 0 mm | - | 0 W/m² | - |
| 1777863586 | 17.78° C | 25% | 995.9 hPa | 0 mm | - | 0 W/m² | - |
| 1777863283 | 17.78° C | 25% | 995.7 hPa | 0 mm | - | 0 W/m² | - |
| 1777862980 | 17.78° C | 25% | 995.9 hPa | 0 mm | - | 0 W/m² | - |
| 1777862677 | 18.33° C | 24% | 995.8 hPa | 0 mm | - | 0 W/m² | - |
| 1777862374 | 18.33° C | 24% | 995.7 hPa | 0 mm | - | 0 W/m² | - |
| 1777862071 | 18.89° C | 24% | 995.8 hPa | 0 mm | - | 1 W/m² | - |
| 1777861766 | 18.89° C | 23% | 995.7 hPa | 0 mm | - | 1 W/m² | - |
| 1777861463 | 18.89° C | 23% | 995.7 hPa | 0 mm | - | 2 W/m² | - |
| 1777861160 | 19.44° C | 23% | 995.7 hPa | 0 mm | - | 2 W/m² | - |
| 1777860857 | 19.44° C | 23% | 995.6 hPa | 0 mm | - | 3 W/m² | - |
| 1777860554 | 19.44° C | 23% | 995.8 hPa | 0 mm | - | 4 W/m² | - |
| 1777860250 | 19.44° C | 23% | 995.7 hPa | 0 mm | - | 6 W/m² | - |
| 1777859947 | 20° C | 22% | 995.9 hPa | 0 mm | - | 8 W/m² | - |
| 1777859643 | 20° C | 21% | 995.8 hPa | 0 mm | - | 10 W/m² | - |
| 1777859339 | 20° C | 21% | 995.6 hPa | 0 mm | - | 12 W/m² | - |
| 1777859035 | 20.56° C | 21% | 995.6 hPa | 0 mm | - | 15 W/m² | - |
| 1777858733 | 20.56° C | 21% | 995.9 hPa | 0 mm | - | 18 W/m² | - |
| 1777858431 | 20.56° C | 21% | 995.8 hPa | 0 mm | - | 21 W/m² | - |
| 1777858127 | 20.56° C | 21% | 995.9 hPa | 0 mm | - | 24 W/m² | - |
| 1777857825 | 21.11° C | 20% | 995.9 hPa | 0 mm | - | 27 W/m² | - |
| 1777857522 | 21.11° C | 20% | 995.8 hPa | 0 mm | - | 30 W/m² | - |
| 1777857218 | 21.67° C | 20% | 995.9 hPa | 0 mm | - | 36 W/m² | - |
| 1777856915 | 21.67° C | 19% | 996 hPa | 0 mm | - | 50 W/m² | - |
* Rain latest hour (hover to see other rain measurements)
** Current wind speed in m/s (hover to see current wind gust speed)